Location: Krasnoyarskiy Pitomnik
(51.1333°N, 71.6167°E)
Time: 10:28:17
(UTC+00:00)

Cosmos 2237 - Pass Details

Date: 22 October 2021
Orbit: 845 x 856 km, 70.8° (Epoch: 06 December)

Event Time Altitude Azimuth Distance (km) Brightness Sun altitude
Exits shadow 23:20:02 20° 329° (NNW) 1,875 5.8 -24.1°
Maximum altitude 23:24:06 85° 242° (WSW) 866 4.1 -23.5°
Drops below altitude 10° 23:29:50 10° 154° (SSE) 2,481 6.8 -22.6°
Sets 23:32:16 0° 154° (SSE) 3,412 7.6 -22.2°
